[[{"header":{"parameterUnit":"m.s-1","parameterCategory":1,"la1":30.2991,"la2":30.254,"lo1":-89.0895,"lo2":-89.0444,"dy":0.0017,"dx":0.0017,"nx":28,"ny":28,"refTime":"2024-05-06T21:00:00:Z","depth":0,"parameterNumber":2,"parameterNumberName":"U-component_of_WINDS"},"data":[0,0,0,0,0,0,0,0,0,0,0,0,0,0,0,0,0,0,0,0,0,0,0,0,0,0,0,0,0,0,0,0,0,0,0,0,0,0,0,0,0,0,0,0,0,0,0,0,0,0,0,0,0,0,0,0,0,0,-0.3234,-0.3235,0,-0.3276,-0.3276,-0.3277,-0.3322,-0.3322,-0.3323,-0.3324,-0.3366,-0.3366,-0.3367,0,0,0,0,0,0,0,0,0,0,0,0,0,-0.3194,-0.3195,-0.3234,-0.3235,-0.3235,-0.3276,-0.3276,-0.3277,-0.3322,-0.3322,-0.3323,-0.3324,-0.3365,-0.3366,-0.3367,0,0,0,0,0,0,0,0,0,0,0,0,0,-0.3221,-0.3195,-0.3234,-0.3262,-0.3265,-0.3275,-0.3276,-0.3277,-0.3321,-0.3322,-0.3323,-0.3324,-0.3365,-0.3366,-0.3367,-0.3352,0,0,-0.3369,-0.3369,0,0,0,0,0,0,0,0,-0.322,-0.3223,-0.3258,-0.326,-0.3264,-0.3295,-0.3278,-0.3302,-0.3321,-0.33,-0.3324,-0.3325,-0.3341,-0.3344,-0.3349,-0.3354,-0.3356,-0.3369,-0.3369,-0.337,-0.337,0,0,0,0,0,0,0,-0.3218,-0.3221,-0.3251,-0.3258,-0.3262,-0.3273,-0.3278,-0.3282,-0.3315,-0.3302,-0.3305,-0.331,-0.3343,-0.3349,-0.3351,-0.3356,-0.3369,-0.337,-0.337,-0.337,-0.3352,-0.3351,0,0,0,0,0,0,-0.3212,-0.3219,-0.3249,-0.3252,-0.3244,-0.3273,-0.3279,-0.3284,-0.3315,-0.332,-0.3309,-0.3312,-0.3347,-0.335,-0.3352,-0.3338,-0.337,-0.3371,-0.3371,-0.3353,-0.3352,-0.3351,0,0,0,0,0,0,-0.3211,-0.3214,-0.3248,-0.3236,-0.3242,-0.3273,-0.3278,-0.3284,-0.329,-0.332,-0.3326,-0.3309,-0.3348,-0.3351,-0.3352,-0.334,-0.3371,-0.3372,-0.3354,-0.3353,-0.3352,-0.3309,0,0,0,0,0,0,-0.3209,-0.3213,-0.3208,-0.3236,-0.3242,-0.3246,-0.3277,-0.3284,-0.3291,-0.3295,-0.3321,-0.3327,-0.3349,-0.3351,-0.3353,-0.3342,-0.3372,-0.3356,-0.3354,-0.3352,-0.3311,-0.3306,-0.3301,0,0,0,0,0,-0.3208,-0.3193,-0.3207,-0.321,-0.3236,-0.3245,-0.3249,-0.3275,-0.329,-0.3285,-0.3304,-0.3326,-0.3341,-0.335,-0.3353,-0.3342,-0.3356,-0.3354,-0.3352,-0.3313,-0.3307,-0.3302,0,0,0,0,0,0,-0.3162,-0.3197,-0.3213,-0.3207,-0.3223,-0.3253,-0.3247,-0.3267,-0.3278,-0.3281,-0.3313,-0.3319,-0.3316,-0.3329,-0.3339,-0.333,-0.3352,-0.335,-0.3322,-0.3316,-0.3311,-0.3308,-0.3373,0,0,0,0,0,-0.3151,-0.3156,-0.3187,-0.3179,-0.3186,-0.3215,-0.322,-0.3239,-0.3256,-0.3263,-0.3283,-0.3299,-0.3308,-0.3312,-0.3322,-0.3314,-0.3321,-0.3308,-0.3303,-0.3299,-0.3297,-0.3295,-0.3289,-0.3344,-0.3344,-0.3344,0,0,-0.3129,-0.3149,-0.315,-0.317,-0.3185,-0.3189,-0.322,-0.3223,-0.3227,-0.3264,-0.3266,-0.3281,-0.3301,-0.3297,-0.3297,-0.3308,-0.3283,-0.3296,-0.3292,-0.3293,-0.3292,-0.3287,-0.3282,-0.3343,-0.3343,-0.3343,0,0,-0.3091,-0.3107,-0.3102,-0.3117,-0.3138,-0.3158,-0.3157,-0.3184,-0.3195,-0.3198,-0.3226,-0.3231,-0.3245,-0.3259,-0.3267,-0.3237,-0.3257,-0.3239,-0.3213,-0.321,-0.3206,-0.3203,-0.3192,-0.3188,-0.3237,-0.3237,-0.3237,0,-0.3061,-0.3069,-0.3098,-0.31,-0.3108,-0.3142,-0.3138,-0.3151,-0.3174,-0.3179,-0.3192,-0.3211,-0.3227,-0.3228,-0.322,-0.3226,-0.3227,-0.3236,-0.3205,-0.3201,-0.3198,-0.3189,-0.3185,-0.3235,-0.3235,-0.3235,-0.3235,0,-0.3031,-0.3036,-0.303,-0.3053,-0.3061,-0.306,-0.3089,-0.3093,-0.3112,-0.313,-0.3134,-0.3154,-0.3169,-0.3171,-0.3188,-0.3174,-0.3181,-0.3199,-0.3221,-0.319,-0.3182,-0.3178,-0.3231,-0.3232,-0.3233,-0.3233,0,0,-0.2965,-0.3004,-0.3001,-0.3013,-0.304,-0.3044,-0.3045,-0.306,-0.3064,-0.308,-0.3082,-0.3094,-0.3111,-0.3121,-0.314,-0.3138,-0.3114,-0.3157,-0.3158,-0.3148,-0.3101,-0.3087,-0.3082,-0.3128,-0.3127,-0.3127,-0.3099,0,-0.2932,-0.2936,-0.2962,-0.2959,-0.2964,-0.2997,-0.2999,-0.3015,-0.3033,-0.3041,-0.3061,-0.3069,-0.309,-0.3097,-0.3096,-0.3117,-0.3105,-0.3119,-0.313,-0.313,-0.3124,-0.3078,-0.3063,-0.3036,-0.3096,-0.3095,-0.3095,0,-0.2894,-0.2907,-0.2904,-0.2933,-0.2936,-0.2937,-0.2953,-0.296,-0.298,-0.2994,-0.3005,-0.3028,-0.3032,-0.3053,-0.3059,-0.3069,-0.3075,-0.3086,-0.3086,-0.3088,-0.3111,-0.3079,-0.3028,-0.3024,-0.309,-0.309,-0.3091,0,-0.2846,-0.2864,-0.2865,-0.2873,-0.2906,-0.2906,-0.292,-0.2941,-0.2949,-0.2964,-0.2969,-0.2984,-0.2992,-0.3003,-0.303,-0.3043,-0.3033,-0.3056,-0.3045,-0.3044,-0.3041,-0.304,-0.299,-0.3044,-0.3045,-0.3045,-0.3045,0,-0.2807,-0.2804,-0.2844,-0.2845,-0.2843,-0.2874,-0.2871,-0.2888,-0.2907,-0.2912,-0.2941,-0.2945,-0.298,-0.2988,-0.3009,-0.3011,-0.3015,-0.3026,-0.3031,-0.3023,-0.3022,-0.3028,-0.303,-0.3044,-0.3044,-0.3044,-0.3044,0,-0.2753,-0.278,-0.2783,-0.2815,-0.2822,-0.282,-0.2847,-0.2849,-0.2869,-0.2875,-0.2878,-0.2909,-0.292,-0.2948,-0.2967,-0.2981,-0.2978,-0.2988,-0.2971,-0.2974,-0.2961,-0.2962,-0.2913,-0.2908,-0.2965,-0.2964,-0.2964,0,-0.2726,-0.2725,-0.2756,-0.2762,-0.2774,-0.2783,-0.2791,-0.2822,-0.283,-0.2854,-0.2853,-0.2867,-0.2879,-0.2896,-0.2921,-0.2935,-0.2946,-0.2928,-0.2948,-0.2941,-0.2946,-0.2946,-0.2947,-0.2923,-0.2922,-0.2922,-0.2921,0,-0.2676,-0.269,-0.2701,-0.2716,-0.2726,-0.274,-0.2755,-0.2758,-0.2793,-0.28,-0.2812,-0.2822,-0.2842,-0.2855,-0.2874,-0.2889,-0.2911,-0.2915,-0.2913,-0.2905,-0.2895,-0.2901,-0.2959,-0.2916,-0.2916,-0.2917,-0.2917,-0.2917,-0.2635,-0.2636,-0.2659,-0.267,-0.2685,-0.27,-0.2703,-0.2724,-0.2735,-0.2753,-0.2771,-0.2782,-0.2803,-0.2831,-0.2844,-0.2853,-0.2865,-0.2862,-0.2861,-0.286,-0.2857,-0.2893,-0.2857,-0.2857,-0.2857,-0.2857,-0.2858,0,-0.2587,-0.2603,-0.2614,-0.2635,-0.2644,-0.2665,-0.2684,-0.269,-0.2699,-0.2718,-0.273,-0.2744,-0.2758,-0.2784,-0.28,-0.2803,-0.2813,-0.2806,-0.2806,-0.2809,-0.2845,-0.2845,-0.2797,-0.2797,-0.2797,-0.2797,-0.2797,-0.2797,-0.2563,-0.2566,-0.2582,-0.2593,-0.261,-0.262,-0.2629,-0.2643,-0.2658,-0.2673,-0.2685,-0.2702,-0.2724,-0.2742,-0.2756,-0.2763,-0.2768,-0.2757,-0.2768,-0.2801,-0.2807,-0.2812,-0.2812,-0.2758,-0.2758,-0.2731,-0.2731,-0.2731]},{"header":{"parameterUnit":"m.s-1","parameterCategory":1,"la1":30.2991,"la2":30.254,"lo1":-89.0895,"lo2":-89.0444,"dy":0.0017,"dx":0.0017,"nx":28,"ny":28,"refTime":"2024-05-06T21:00:00:Z","depth":0,"parameterNumber":3,"parameterNumberName":"V-component_of_WINDS"},"data":[0,0,0,0,0,0,0,0,0,0,0,0,0,0,0,0,0,0,0,0,0,0,0,0,0,0,0,0,0,0,0,0,0,0,0,0,0,0,0,0,0,0,0,0,0,0,0,0,0,0,0,0,0,0,0,0,0,0,6.1604,6.1606,0,6.1744,6.1745,6.1747,6.1727,6.1725,6.1722,6.172,6.1855,6.186,6.1866,0,0,0,0,0,0,0,0,0,0,0,0,0,6.1313,6.1318,6.1604,6.1606,6.1608,6.1743,6.1745,6.1747,6.1727,6.1725,6.1722,6.1719,6.1853,6.1859,6.1866,0,0,0,0,0,0,0,0,0,0,0,0,0,6.1444,6.132,6.1604,6.1614,6.1617,6.1743,6.1745,6.1748,6.1728,6.1725,6.1721,6.1718,6.185,6.1859,6.1867,6.1989,0,0,6.1893,6.1897,0,0,0,0,0,0,0,0,6.1437,6.1455,6.1611,6.1614,6.1617,6.1715,6.1692,6.1828,6.1729,6.1686,6.172,6.1716,6.181,6.1822,6.1855,6.1996,6.2001,6.1894,6.1899,6.1903,6.1906,0,0,0,0,0,0,0,6.1428,6.1449,6.1659,6.1613,6.1617,6.1609,6.1624,6.1718,6.1765,6.1689,6.1688,6.1705,6.1811,6.1847,6.1858,6.2003,6.1894,6.1902,6.1907,6.191,6.2251,6.2254,0,0,0,0,0,0,6.1417,6.1441,6.1655,6.1663,6.1517,6.1617,6.1634,6.1686,6.1764,6.1773,6.1708,6.1704,6.1834,6.1848,6.1863,6.2012,6.1903,6.1911,6.1916,6.2247,6.2251,6.2256,0,0,0,0,0,0,6.1411,6.1436,6.1649,6.1552,6.1579,6.1626,6.1685,6.1691,6.1727,6.1779,6.1786,6.1737,6.1832,6.1851,6.1959,6.2016,6.1915,6.1923,6.2242,6.2248,6.2254,6.231,0,0,0,0,0,0,6.1402,6.1434,6.1483,6.1553,6.1584,6.1745,6.1689,6.1696,6.1743,6.1739,6.1808,6.1816,6.1831,6.1946,6.1967,6.2026,6.1929,6.2237,6.2245,6.2252,6.2303,6.2317,6.2328,0,0,0,0,0,6.1392,6.1491,6.1485,6.1511,6.1647,6.1748,6.1766,6.1783,6.1748,6.1796,6.1829,6.1813,6.2006,6.1957,6.1981,6.2043,6.2234,6.2243,6.2251,6.2297,6.2314,6.2328,0,0,0,0,0,0,6.1423,6.15,6.1495,6.1621,6.1679,6.1745,6.1807,6.1801,6.1867,6.186,6.1877,6.1893,6.2002,6.2033,6.1977,6.2165,6.2115,6.2129,6.2141,6.2158,6.217,6.2161,6.1937,0,0,0,0,0,6.1445,6.1524,6.1586,6.169,6.172,6.1759,6.1803,6.1813,6.1872,6.1895,6.1936,6.1992,6.2065,6.2113,6.2183,6.2307,6.2321,6.2361,6.2374,6.2384,6.2396,6.2464,6.2482,6.2284,6.2284,6.2284,0,0,6.149,6.1542,6.159,6.1698,6.1744,6.1823,6.1779,6.1864,6.1923,6.1907,6.2013,6.2045,6.2108,6.2225,6.2278,6.2254,6.2454,6.2395,6.2403,6.241,6.2475,6.2493,6.251,6.229,6.2289,6.2288,0,0,6.1613,6.166,6.1753,6.1801,6.1872,6.1897,6.1919,6.1987,6.2009,6.2115,6.2106,6.2173,6.2299,6.2345,6.2385,6.2526,6.2514,6.2548,6.2615,6.268,6.2696,6.271,6.276,6.2778,6.2559,6.2559,6.2559,0,6.1659,6.1781,6.1801,6.1889,6.1936,6.1928,6.2021,6.2065,6.2154,6.2186,6.2158,6.2317,6.2359,6.2486,6.2521,6.2553,6.2578,6.254,6.2693,6.2707,6.272,6.2768,6.2787,6.2563,6.2563,6.2562,6.2562,0,6.1834,6.1919,6.1985,6.2075,6.2129,6.2219,6.225,6.2302,6.2306,6.2333,6.2441,6.2491,6.2572,6.2602,6.2606,6.2731,6.2714,6.2689,6.2639,6.2742,6.2788,6.2807,6.2568,6.2567,6.2566,6.2565,0,0,6.1981,6.2082,6.2106,6.2147,6.2225,6.2289,6.2377,6.2459,6.2504,6.2565,6.2639,6.2746,6.2724,6.2769,6.2777,6.2835,6.2944,6.2804,6.2805,6.2828,6.3084,6.3103,6.3124,6.2936,6.294,6.2943,6.3079,0,6.2112,6.2272,6.2293,6.2433,6.2511,6.2505,6.2582,6.2637,6.2664,6.2732,6.2761,6.2837,6.2802,6.283,6.2887,6.2919,6.2996,6.2909,6.3003,6.3007,6.2989,6.3148,6.3167,6.3294,6.3097,6.31,6.3102,0,6.2286,6.2357,6.2506,6.2575,6.2608,6.2677,6.2754,6.2819,6.288,6.2896,6.2947,6.2949,6.3037,6.2983,6.3105,6.3046,6.3086,6.3107,6.3112,6.3122,6.3061,6.3162,6.3334,6.3354,6.313,6.3128,6.3126,0,6.2379,6.251,6.2617,6.2652,6.2734,6.2783,6.2819,6.2877,6.2925,6.2991,6.3022,6.3096,6.3136,6.3192,6.3213,6.3172,6.3334,6.3281,6.3348,6.3348,6.3383,6.3381,6.3565,6.3408,6.3407,6.3407,6.3407,0,6.2524,6.2616,6.266,6.2726,6.2828,6.2849,6.2949,6.2982,6.3034,6.3104,6.3102,6.3167,6.319,6.3259,6.3274,6.3373,6.3391,6.3405,6.3408,6.3406,6.3404,6.3432,6.3424,6.3412,6.3411,6.341,6.3409,0,6.2645,6.2678,6.2795,6.2864,6.2883,6.2955,6.3013,6.3075,6.3102,6.3191,6.3213,6.3254,6.3334,6.3361,6.3457,6.3467,6.3583,6.3578,6.3563,6.3564,6.363,6.3623,6.3839,6.3868,6.3691,6.3693,6.3694,0,6.2735,6.2807,6.2884,6.2933,6.2971,6.3049,6.3099,6.3122,6.3173,6.3249,6.3301,6.3382,6.3448,6.3576,6.3613,6.3687,6.3684,6.3754,6.3695,6.369,6.3685,6.3681,6.3688,6.3765,6.3767,6.3769,6.377,0,6.2893,6.2906,6.298,6.306,6.312,6.3183,6.3243,6.3282,6.3314,6.3371,6.3455,6.3507,6.3607,6.3686,6.3761,6.3795,6.3788,6.3788,6.3808,6.3806,6.3796,6.3803,6.3594,6.3783,6.3782,6.3781,6.378,6.378,6.3002,6.3065,6.313,6.3212,6.3261,6.3318,6.338,6.3416,6.3487,6.3573,6.3581,6.3671,6.373,6.3831,6.3868,6.3938,6.3917,6.3945,6.3953,6.3959,6.3965,6.3784,6.3951,6.3951,6.395,6.395,6.395,0,6.316,6.3202,6.3277,6.3364,6.3428,6.3418,6.3484,6.3538,6.3619,6.3675,6.3741,6.3837,6.3915,6.3958,6.4035,6.4082,6.408,6.4101,6.4098,6.4106,6.3978,6.3954,6.4101,6.4101,6.4101,6.4101,6.4101,6.4101,6.3249,6.3356,6.3377,6.3508,6.3548,6.3639,6.3678,6.373,6.3776,6.3884,6.395,6.3979,6.403,6.411,6.418,6.419,6.4219,6.4242,6.425,6.413,6.4115,6.41,6.4078,6.4248,6.4248,6.4372,6.4373,6.4374]}]]